Tracking 19226 objects as of 23-Jul-2018
HD Live streaming from Space Station
objects crossing your sky now

FENGYUN 1C DEB

Track FENGYUN 1C DEB now!
10-day predictions


NORAD ID: 36672
Int'l Code: 1999-025DYS
Perigee: 577.2 km
Apogee: 630.5 km
Inclination: 99.0 °
Period: 96.6 minutes
Semi major axis: 6974 km
RCS: 0.0094 m2 (small)
Launch date: May 10, 1999
Source: People's Republic of China (PRC)
Launch site: Taiyaun Space Center, China (TSC)

Note: This is SATELLITE DEBRIS
aabbcc
Your satellite tracking list
Your tracking list is empty




NASA's NSSDC Master Catalog

Two Line Element Set (TLE):
1 36672U 99025DYS 18200.83201016 +.00003051 +00000-0 +31659-3 0  9997
2 36672 098.9836 197.1504 0038197 261.4180 098.2705 14.90380164173037
Source of the keplerian elements: AFSPC